Terminal Aerodrome Forecast
Issued by NWS

Home | Current Version | Previous Version | Text Only | Print | Product List | Glossary On
Versions: 1 2 3 4 5 6 7 8 9 10 11 12 13 14 15 16 17 18 19 20 21 22 23 24 25 26 27 28 29 30 31 32 33 34 35 36 37 38 39 40 41 42 43 44 45
000
FTUS41 KCTP 270923 AAA
TAFJST
TAF AMD
KJST 270923Z 2709/2806 22005KT P6SM SCT035 SCT250
     FM271500 27007KT P6SM BKN030 BKN100
     FM271900 29009G17KT P6SM VCTS SCT027CB BKN050
     FM272300 32008KT P6SM SCT060=

USA.gov is the U.S. government's official web portal to all federal, state and local government web resources and services.